Date_and_time,latitude,longitude,wind_speed,RelWindDirFrom,WindDirFrom,air_pressure,air_temperature,relative_humidity,Temp,platform_speed_wrt_ground,air_pressure_at_mean_sea_level,platform_orientation
2018-10-26 23:50,50.6304283333333,-96.9807533333333,6.9,7.8,121,979.88,5.7,101,4.65,0.0,1006.97,360.0
2018-10-27 00:00,50.6304283333333,-96.9807533333333,7.6,8.3,116,979.80,5.7,101,4.66,0.0,1006.89,60.8
2018-10-27 00:10,50.6304283333333,-96.9807533333333,7.7,8.2,106,979.70,5.6,101,4.66,0.0,1006.79,60.8
2018-10-27 00:20,50.6304283333333,-96.9807533333333,6.9,8.3,105,979.73,5.5,101,4.66,0.0,1006.81,60.8
2018-10-27 00:30,50.6304283333333,-96.9807533333333,5.3,6.7,109,979.81,5.4,101,4.66,0.0,1006.90,60.8
2018-10-27 00:40,50.6304283333333,-96.980755,3.2,4.3,123,979.88,5.4,101,4.66,0.0,1006.99,60.8
2018-10-27 00:50,50.6304283333333,-96.980755,1.5,3.0,152,979.90,4.9,101,4.66,0.0,1007.03,60.8
2018-10-27 01:00,50.63043,-96.980755,1.1,1.8,191,979.89,4.8,102,4.66,0.0,1007.02,48.3
2018-10-27 01:10,50.63043,-96.980755,0.8,2.6,166,979.82,4.8,102,4.66,0.0,1006.94,48.3
2018-10-27 01:20,50.63043,-96.980755,1.0,2.6,169,979.81,4.9,102,4.66,0.0,1006.95,48.3
2018-10-27 01:30,50.63043,-96.9807566666667,2.2,5.0,106,979.71,5.4,102,4.66,0.0,1006.79,48.3
2018-10-27 01:40,50.63043,-96.9807566666667,1.5,3.0,113,979.63,5.5,102,4.66,0.0,1006.70,48.3
2018-10-27 01:50,50.6304333333333,-96.9807666666667,0.8,1.6,184,979.64,5.0,102,4.66,0.0,1006.73,48.3
2018-10-27 02:00,50.630435,-96.980765,1.7,3.1,179,979.65,5.0,102,4.66,0.0,1006.75,345.5
2018-10-27 02:10,50.6304333333333,-96.9807666666667,2.1,3.1,170,979.56,5.0,102,4.67,0.0,1006.66,345.5
2018-10-27 02:20,50.630435,-96.9807633333333,2.7,4.5,149,979.45,5.1,102,4.66,0.0,1006.54,345.5
2018-10-27 02:30,50.630435,-96.9807633333333,1.9,2.8,159,979.41,5.0,102,4.67,0.0,1006.52,345.5
2018-10-27 02:40,50.630435,-96.9807633333333,2.5,3.2,149,979.35,5.0,102,4.68,0.0,1006.47,345.5
2018-10-27 02:50,50.630435,-96.9807733333333,3.0,4.1,152,979.27,5.0,102,4.68,0.0,1006.40,345.5
2018-10-27 03:00,50.6304383333333,-96.9807633333333,2.7,3.3,165,979.24,4.9,102,4.68,0.0,1006.37,356.8
2018-10-27 03:10,50.630435,-96.9807583333333,2.6,3.2,160,979.23,4.9,102,4.67,0.0,1006.35,356.8
2018-10-27 03:20,50.6304316666667,-96.9807533333333,2.6,4.3,123,979.20,5.5,102,4.67,0.0,1006.28,356.8
2018-10-27 03:30,50.6304283333333,-96.98075,2.6,3.8,132,979.16,5.4,102,4.66,0.0,1006.22,356.8
2018-10-27 03:40,50.6304233333333,-96.9807533333333,3.0,4.2,101,979.09,5.4,102,4.66,0.0,1006.18,356.8
2018-10-27 03:50,50.630435,-96.9807666666667,3.6,5.0,107,979.05,5.2,102,4.67,0.0,1006.15,356.8
2018-10-27 04:00,50.6304416666667,-96.9807616666667,3.6,4.9,128,979.02,5.2,102,4.68,0.0,1006.12,18.9
2018-10-27 04:10,50.6304333333333,-96.9807583333333,5.7,7.5,122,978.93,5.2,102,4.69,0.0,1006.03,18.9
2018-10-27 04:20,50.63043,-96.980755,7.3,8.2,127,978.91,5.4,102,4.70,0.0,1006.00,18.9
2018-10-27 04:30,50.63043,-96.980755,6.8,7.3,132,978.91,5.4,102,4.70,0.0,1006.00,18.9
2018-10-27 04:40,50.63043,-96.9807566666667,7.2,8.4,127,978.90,5.3,102,4.71,0.0,1005.99,18.9
2018-10-27 04:50,50.6304316666667,-96.9807566666667,7.6,8.5,128,978.86,5.5,102,4.71,0.0,1005.94,18.9
2018-10-27 05:00,50.63045,-96.9807583333333,7.5,8.9,133,978.77,5.4,102,4.70,0.0,1005.86,360.0
2018-10-27 05:10,50.6304383333333,-96.98077,4.6,6.2,160,978.83,4.7,102,4.69,0.0,1005.92,360.0
2018-10-27 05:20,50.6304433333333,-96.9807583333333,4.2,5.7,167,978.85,4.8,103,4.70,0.0,1005.95,360.0
2018-10-27 05:30,50.6304366666667,-96.9807616666667,4.8,5.8,176,978.86,4.7,103,4.71,0.0,1005.96,360.0
2018-10-27 05:40,50.63044,-96.9807683333333,4.2,5.2,167,978.85,4.7,103,4.71,0.0,1005.96,360.0
2018-10-27 05:50,50.630435,-96.9807666666667,4.9,5.4,153,978.76,4.7,103,4.72,0.0,1005.87,360.0
2018-10-27 06:00,50.6304366666667,-96.9807666666667,4.6,5.6,154,978.75,4.7,103,4.72,0.0,1005.86,360.0
2018-10-27 06:10,50.630435,-96.9807633333333,4.5,5.6,149,978.73,4.7,103,4.73,0.0,1005.82,360.0
2018-10-27 06:20,50.630435,-96.98076,4.4,5.0,156,978.71,4.7,103,4.72,0.0,1005.81,360.0
2018-10-27 06:30,50.630435,-96.9807616666667,4.6,6.0,168,978.76,4.8,103,4.72,0.0,1005.85,360.0
2018-10-27 06:40,50.630435,-96.9807583333333,4.4,5.4,177,978.78,4.9,103,4.72,0.0,1005.87,360.0
2018-10-27 06:50,50.630435,-96.9807583333333,5.6,6.4,179,978.75,5.1,103,4.72,0.0,1005.83,360.0
2018-10-27 07:00,50.630435,-96.9807583333333,5.6,6.8,183,978.84,5.4,103,4.72,0.0,1005.94,142.0
2018-10-27 07:10,50.6304583333333,-96.9808133333333,5.4,7.1,170,978.80,5.4,103,4.72,0.0,1005.89,142.0
2018-10-27 07:20,50.6304383333333,-96.9807683333333,6.2,7.9,175,978.78,5.3,103,4.72,0.0,1005.88,142.0
2018-10-27 07:30,50.6304366666667,-96.9807633333333,6.9,7.9,179,978.83,5.4,103,4.71,0.0,1005.93,142.0
2018-10-27 07:40,50.630435,-96.9807583333333,7.3,8.3,173,978.85,5.5,103,4.71,0.0,1005.94,142.0
2018-10-27 07:50,50.6304366666667,-96.98076,5.9,7.5,169,978.76,5.3,103,4.72,0.0,1005.86,142.0
2018-10-27 08:00,50.6304333333333,-96.98076,6.1,6.9,172,978.72,5.2,104,4.72,0.0,1005.82,360.0
2018-10-27 08:10,50.630435,-96.9807066666667,5.8,6.7,179,978.63,5.2,104,4.72,0.0,1005.74,360.0
2018-10-27 08:20,50.6304333333333,-96.9807566666667,4.5,5.9,183,978.51,5.2,104,4.73,0.0,1005.61,360.0
2018-10-27 08:30,50.6304366666667,-96.980755,4.1,4.9,174,978.43,5.5,104,4.74,0.0,1005.51,360.0
2018-10-27 08:40,50.6304366666667,-96.980755,4.6,5.3,171,978.35,5.5,104,4.73,0.0,1005.42,360.0
2018-10-27 08:50,50.6304383333333,-96.9807566666667,4.6,5.8,176,978.34,5.4,104,4.74,0.0,1005.39,360.0
2018-10-27 09:00,50.6304383333333,-96.9807566666667,4.3,4.7,179,978.37,5.5,104,4.73,0.0,1005.41,12.6
2018-10-27 09:10,50.63044,-96.9807566666667,3.3,4.1,184,978.39,5.4,104,4.75,0.0,1005.45,12.6
2018-10-27 09:20,50.63044,-96.980755,3.3,3.9,182,978.32,5.5,104,4.76,0.0,1005.37,12.6
2018-10-27 09:30,50.63044,-96.980755,3.9,4.7,188,978.34,5.8,104,4.76,0.0,1005.36,12.6
2018-10-27 09:40,50.6304416666667,-96.980755,3.7,4.5,190,978.38,5.9,104,4.75,0.0,1005.41,12.6
2018-10-27 09:50,50.6304416666667,-96.9807566666667,3.3,3.9,178,978.24,6.0,104,4.75,0.0,1005.26,12.6
2018-10-27 10:00,50.6304416666667,-96.9807566666667,3.8,4.9,175,978.20,6.1,104,4.74,0.0,1005.22,38.0
2018-10-27 10:10,50.6304416666667,-96.9807566666667,5.4,6.2,160,978.09,5.8,104,4.74,0.0,1005.12,38.0
2018-10-27 10:20,50.63041,-96.9807683333333,5.8,6.2,162,978.00,5.5,104,4.74,0.0,1005.04,38.0
2018-10-27 10:30,50.6304366666667,-96.980765,5.3,6.2,166,977.96,5.4,104,4.74,0.0,1004.99,38.0
2018-10-27 10:40,50.630435,-96.9807733333333,5.8,6.7,170,977.93,5.3,104,4.74,0.0,1004.98,38.0
2018-10-27 10:50,50.630435,-96.9807416666667,4.0,5.2,188,977.95,5.5,104,4.73,0.0,1004.98,38.0
2018-10-27 11:00,50.630435,-96.98075,4.3,5.5,189,977.93,5.8,104,4.74,0.0,1004.95,48.3
2018-10-27 11:10,50.6304333333333,-96.980755,4.6,6.0,205,978.01,6.0,104,4.74,0.0,1005.02,48.3
2018-10-27 11:20,50.6304333333333,-96.9807583333333,3.6,5.6,209,977.99,6.0,104,4.74,0.0,1004.98,48.3
2018-10-27 11:30,50.6304266666667,-96.98074,4.2,7.0,204,977.93,6.1,105,4.75,0.0,1004.91,48.3
2018-10-27 11:40,50.6304233333333,-96.9807533333333,5.6,6.9,220,978.05,6.5,105,4.76,0.0,1005.01,48.3
2018-10-27 11:50,50.6304233333333,-96.9807566666667,5.0,6.2,215,978.01,6.4,105,4.76,0.0,1004.97,48.3
2018-10-27 12:00,50.630425,-96.980755,6.7,12.4,246,978.15,6.4,105,4.76,0.0,1005.12,161.1
2018-10-27 12:10,50.6304183333333,-96.9807483333333,8.4,12.0,267,978.20,5.8,105,4.76,0.0,1005.22,161.1
2018-10-27 12:20,50.63042,-96.9807566666667,7.6,10.8,266,978.14,5.4,105,4.77,0.0,1005.18,161.1
2018-10-27 12:30,50.6304233333333,-96.9807583333333,6.3,9.4,268,978.16,5.2,105,4.77,0.0,1005.22,161.1
2018-10-27 12:40,50.630415,-96.9807566666667,5.1,9.0,265,978.13,5.2,105,4.78,0.0,1005.19,161.1
2018-10-27 12:50,50.63042,-96.9807633333333,3.1,4.6,264,978.12,5.1,105,4.79,0.0,1005.16,161.1
2018-10-27 13:00,50.6304416666667,-96.9807783333333,3.5,5.6,266,978.24,5.1,105,4.80,0.0,1005.27,270.0
2018-10-27 13:10,50.6304266666667,-96.9807733333333,2.7,4.8,269,978.16,5.0,105,4.80,0.0,1005.19,270.0
2018-10-27 13:20,50.63043,-96.980775,3.1,4.6,244,978.21,5.0,105,4.80,0.0,1005.24,270.0
2018-10-27 13:30,50.630435,-96.980775,3.4,4.8,242,978.35,5.0,105,4.79,0.0,1005.37,270.0
2018-10-27 13:40,50.630435,-96.980775,4.2,6.6,249,978.36,4.9,105,4.79,0.0,1005.39,270.0
2018-10-27 13:50,50.6304333333333,-96.9807733333333,4.9,7.7,261,978.40,4.8,105,4.79,0.0,1005.43,270.0
2018-10-27 14:00,50.630435,-96.9807733333333,3.9,6.2,261,978.31,4.7,105,4.78,0.0,1005.38,270.0
2018-10-27 14:10,50.6304383333333,-96.9807566666667,3.3,4.8,248,978.31,4.6,105,4.78,0.0,1005.40,270.0
2018-10-27 14:20,50.630425,-96.9807566666667,3.1,4.3,235,978.26,4.6,105,4.79,0.0,1005.36,270.0
2018-10-27 14:30,50.6304316666667,-96.9807566666667,3.2,4.5,235,978.19,4.5,105,4.79,0.0,1005.29,270.0
2018-10-27 14:40,50.6304466666667,-96.9807883333333,2.5,3.8,232,978.11,4.5,105,4.79,0.0,1005.21,270.0
2018-10-27 14:50,50.630425,-96.98076,2.5,3.7,248,978.11,4.6,105,4.79,0.0,1005.21,270.0
2018-10-27 15:00,50.6304266666667,-96.9807533333333,3.5,4.5,251,978.12,4.6,105,4.79,0.0,1005.23,90.0
2018-10-27 15:10,50.6304266666667,-96.9807533333333,3.8,5.3,247,978.23,4.6,105,4.79,0.0,1005.34,90.0
2018-10-27 15:20,50.6304266666667,-96.980755,4.3,6.1,246,978.33,4.6,105,4.79,0.0,1005.44,90.0
2018-10-27 15:30,50.6304216666667,-96.980775,4.5,6.5,251,978.42,4.7,105,4.79,0.0,1005.54,90.0
2018-10-27 15:40,50.6304183333333,-96.9807616666667,4.3,6.7,250,978.42,4.7,105,4.79,0.0,1005.54,90.0
2018-10-27 15:50,50.6304166666667,-96.9807616666667,4.2,6.9,252,978.42,4.7,105,4.80,0.0,1005.55,90.0
2018-10-27 16:00,50.6304183333333,-96.9807666666667,6.4,8.2,223,978.48,4.4,105,4.80,0.0,1005.63,152.8
2018-10-27 16:10,50.6304166666667,-96.9807683333333,5.5,7.8,244,978.47,4.5,105,4.81,0.0,1005.61,152.8
2018-10-27 16:20,50.6304133333333,-96.98077,4.2,6.5,255,978.36,4.6,105,4.81,0.0,1005.50,152.8
2018-10-27 16:30,50.6304316666667,-96.9807883333333,4.1,6.5,243,978.36,4.6,105,4.80,0.0,1005.49,152.8
2018-10-27 16:40,50.630425,-96.98077,3.7,6.7,234,978.35,4.5,105,4.81,0.0,1005.48,152.8
2018-10-27 16:50,50.630425,-96.9807716666667,4.9,7.0,235,978.40,4.5,105,4.82,0.0,1005.53,152.8
2018-10-27 17:00,50.6304233333333,-96.9807683333333,4.9,6.7,222,978.40,4.5,104,4.82,0.0,1005.54,138.7
2018-10-27 17:10,50.6304216666667,-96.9807683333333,4.1,6.2,259,978.39,4.6,104,4.82,0.0,1005.52,138.7
2018-10-27 17:20,50.6304433333333,-96.9807866666667,2.8,4.6,227,978.36,4.7,104,4.82,0.0,1005.48,138.7
2018-10-27 17:30,50.6304283333333,-96.9807533333333,4.1,6.1,221,978.55,4.7,103,4.84,0.0,1005.67,138.7
2018-10-27 17:40,50.6304266666667,-96.980755,4.9,6.6,231,978.59,4.8,102,4.83,0.0,1005.71,138.7
2018-10-27 17:50,50.63043,-96.9807566666667,4.7,7.2,209,978.55,4.9,101,4.83,0.0,1005.69,138.7
2018-10-27 18:00,50.6304266666667,-96.9807566666667,5.1,7.3,228,978.54,4.9,101,4.83,0.0,1005.66,270.0
2018-10-27 18:10,50.6304116666667,-96.9807516666667,5.9,7.7,217,978.72,4.9,101,4.83,0.0,1005.85,270.0
2018-10-27 18:20,50.6304133333333,-96.9807483333333,4.5,6.2,225,978.43,5.0,100,4.83,0.0,1005.54,270.0
2018-10-27 18:30,50.6304133333333,-96.9807516666667,3.7,5.0,220,978.20,4.9,100,4.83,0.0,1005.31,270.0
2018-10-27 18:40,50.6304,-96.9807783333333,3.7,5.5,233,978.24,5.0,100,4.84,0.0,1005.36,270.0
2018-10-27 18:50,50.63042,-96.9807616666667,4.9,6.7,232,978.36,5.1,100,4.86,0.0,1005.47,270.0
2018-10-27 19:00,50.630405,-96.980765,3.8,5.3,226,978.19,5.1,100,4.87,0.0,1005.29,360.0
2018-10-27 19:10,50.6304133333333,-96.9807566666667,4.9,6.9,216,978.09,5.1,100,4.88,0.0,1005.19,360.0
2018-10-27 19:20,50.6304366666667,-96.9808,2.8,5.2,225,978.11,5.1,100,4.88,0.0,1005.20,360.0
2018-10-27 19:30,50.6304266666667,-96.9807616666667,3.3,5.4,235,978.04,5.1,100,4.89,0.0,1005.13,360.0
2018-10-27 19:40,50.6304233333333,-96.9807583333333,3.3,4.5,225,977.98,5.1,100,4.91,0.0,1005.07,360.0
2018-10-27 19:50,50.630425,-96.98076,2.1,5.4,214,977.99,5.1,100,4.92,0.0,1005.07,360.0
2018-10-27 20:00,50.630425,-96.98076,2.7,5.4,219,978.00,5.2,100,4.92,0.0,1005.07,90.0
2018-10-27 20:10,50.6304416666667,-96.9807633333333,3.0,4.6,230,978.05,5.3,100,4.94,0.0,1005.13,90.0
2018-10-27 20:20,50.630435,-96.9807583333333,3.8,6.1,233,978.01,5.3,100,4.94,0.0,1005.08,90.0
2018-10-27 20:30,50.6304066666667,-96.9807516666667,3.9,6.1,239,978.02,5.3,100,4.93,0.0,1005.09,90.0
2018-10-27 20:40,50.6304266666667,-96.9807533333333,2.9,5.0,239,978.06,5.4,100,4.94,0.0,1005.11,90.0
2018-10-27 20:50,50.63043,-96.9807566666667,5.2,7.1,219,978.11,5.3,100,4.95,0.0,1005.17,90.0
2018-10-27 21:00,50.63043,-96.98076,5.0,6.5,206,978.10,5.1,100,4.96,0.0,1005.17,0.0
2018-10-27 21:10,50.63043,-96.98076,6.4,8.1,197,978.14,5.0,100,4.97,0.0,1005.22,0.0
2018-10-27 21:20,50.63043,-96.98076,6.9,8.7,197,978.20,4.9,100,4.97,0.0,1005.29,0.0
2018-10-27 21:30,50.6304016666667,-96.98077,5.9,7.9,209,978.29,5.0,100,4.97,0.0,1005.37,0.0
2018-10-27 21:40,50.6304366666667,-96.9807583333333,4.4,6.3,202,978.27,5.0,100,4.98,0.0,1005.36,0.0
2018-10-27 21:50,50.6304316666667,-96.9807616666667,3.7,5.3,229,978.39,5.1,100,4.98,0.0,1005.47,0.0
2018-10-27 22:00,50.6304316666667,-96.980765,3.9,5.0,217,978.53,5.2,100,4.98,0.0,1005.60,360.0
2018-10-27 22:10,50.6304333333333,-96.98076,4.5,5.7,214,978.56,5.2,100,4.97,0.0,1005.63,360.0
2018-10-27 22:20,50.6304333333333,-96.9807583333333,4.3,6.8,196,978.56,5.2,100,4.96,0.0,1005.64,360.0
2018-10-27 22:30,50.6304333333333,-96.9807566666667,6.5,8.8,192,978.59,5.1,100,4.95,0.0,1005.66,360.0
2018-10-27 22:40,50.6304033333333,-96.98075,8.2,10.4,197,978.71,5.1,100,4.95,0.0,1005.79,360.0
2018-10-27 22:50,50.630425,-96.9807533333333,7.6,9.6,194,978.72,5.0,100,4.97,0.0,1005.82,360.0
2018-10-27 23:00,50.630425,-96.9807516666667,7.8,10.5,197,978.77,5.0,100,4.99,0.0,1005.88,90.0
2018-10-27 23:10,50.6304116666667,-96.9807583333333,7.5,9.9,200,978.88,4.9,100,4.98,0.0,1006.00,90.0
2018-10-27 23:20,50.630425,-96.9807583333333,8.4,10.8,200,978.92,4.9,100,4.98,0.0,1006.04,90.0
2018-10-27 23:30,50.6304316666667,-96.9807466666667,7.7,10.0,195,979.01,4.8,100,4.99,0.0,1006.13,90.0
